[[{"header":{"parameterUnit":"m.s-1","parameterCategory":1,"la1":30.2991,"la2":30.254,"lo1":-89.0895,"lo2":-89.0444,"dx":0.0017,"dy":0.0017,"nx":28,"ny":28,"refTime":"2022-11-15T09:00:00:Z","depth":0,"parameterNumber":2,"parameterNumberName":"U-component_of_WINDS"},"data":[0,0,0,0,0,0,0,0,0,0,0,0,0,0,0,0,0,0,0,0,0,0,0,0,0,0,0,0,0,0,0,0,0,0,0,0,0,0,0,0,0,0,0,0,0,0,0,0,0,0,0,0,0,0,0,0,0,0,1.6261,1.626,0,1.6184,1.6183,1.6182,1.6062,1.606,1.6058,1.6056,1.598,1.598,1.598,0,0,0,0,0,0,0,0,0,0,0,0,0,1.6309,1.6308,1.6261,1.626,1.6259,1.6184,1.6183,1.6182,1.6063,1.606,1.6057,1.6055,1.598,1.598,1.598,0,0,0,0,0,0,0,0,0,0,0,0,0,1.6266,1.6308,1.6261,1.619,1.6183,1.6185,1.6183,1.6182,1.6063,1.606,1.6057,1.6054,1.598,1.598,1.598,1.6045,0,0,1.598,1.598,0,0,0,0,0,0,0,0,1.6268,1.6264,1.6202,1.6195,1.6187,1.6129,1.6172,1.6136,1.6064,1.6109,1.6056,1.6052,1.6033,1.6028,1.6021,1.6042,1.6039,1.598,1.598,1.598,1.598,0,0,0,0,0,0,0,1.6271,1.6267,1.6231,1.6201,1.6192,1.6164,1.6154,1.6165,1.609,1.6105,1.6096,1.6088,1.6028,1.6021,1.6018,1.6037,1.598,1.598,1.598,1.598,1.611,1.6114,0,0,0,0,0,0,1.6284,1.627,1.6233,1.6228,1.6221,1.6166,1.6155,1.6151,1.609,1.6077,1.6091,1.6083,1.6023,1.6019,1.6015,1.6089,1.598,1.598,1.598,1.6107,1.6111,1.6115,0,0,0,0,0,0,1.6286,1.6282,1.6236,1.6247,1.6239,1.6168,1.6165,1.6152,1.6144,1.6079,1.6066,1.6098,1.602,1.6015,1.6039,1.6084,1.598,1.598,1.6103,1.6108,1.6113,1.6236,0,0,0,0,0,0,1.6288,1.6283,1.6306,1.6248,1.6239,1.626,1.6168,1.6152,1.6144,1.6133,1.6082,1.607,1.6017,1.604,1.6039,1.6083,1.598,1.6099,1.6105,1.6111,1.6228,1.6245,1.6259,0,0,0,0,0,1.629,1.6344,1.6308,1.6304,1.6266,1.6263,1.6258,1.6195,1.6149,1.6172,1.613,1.6072,1.608,1.6043,1.6041,1.6086,1.6095,1.6103,1.6111,1.622,1.6241,1.6259,0,0,0,0,0,0,1.641,1.6335,1.6294,1.6331,1.6304,1.6243,1.627,1.6219,1.6205,1.6195,1.6119,1.6109,1.6143,1.6116,1.6077,1.6147,1.6079,1.6087,1.6163,1.6182,1.6197,1.6203,1.598,0,0,0,0,0,1.644,1.6444,1.6378,1.6417,1.6406,1.6341,1.6338,1.6292,1.6261,1.625,1.6209,1.6184,1.618,1.6179,1.6172,1.6223,1.6211,1.6253,1.6269,1.6282,1.629,1.6317,1.6335,1.614,1.614,1.614,0,0,1.6504,1.6463,1.647,1.6441,1.6414,1.6421,1.6332,1.6342,1.6347,1.6251,1.6271,1.6242,1.6208,1.6246,1.6261,1.6225,1.6342,1.6292,1.6303,1.6304,1.6327,1.6346,1.6362,1.6146,1.6145,1.6144,0,0,1.6623,1.6592,1.6622,1.6598,1.6559,1.6516,1.6524,1.647,1.6447,1.6466,1.6395,1.64,1.6395,1.6374,1.6363,1.6478,1.6424,1.6478,1.6561,1.6588,1.6604,1.6617,1.6659,1.6675,1.6486,1.6486,1.6486,0,1.6707,1.6712,1.6644,1.6659,1.6649,1.6563,1.6594,1.6574,1.6536,1.6532,1.6492,1.6486,1.6457,1.649,1.6518,1.6511,1.6519,1.6483,1.6607,1.6619,1.6631,1.667,1.6686,1.6493,1.6492,1.6491,1.6491,0,1.6818,1.6824,1.6853,1.6818,1.6811,1.6835,1.6771,1.6773,1.6729,1.669,1.6712,1.6674,1.6659,1.6664,1.662,1.6692,1.6671,1.662,1.655,1.6657,1.6693,1.6708,1.6503,1.65,1.6498,1.6496,0,0,1.7009,1.6938,1.695,1.6934,1.6886,1.689,1.6911,1.6895,1.6899,1.6877,1.6893,1.6892,1.6845,1.6833,1.6787,1.6811,1.6906,1.6757,1.6755,1.6787,1.6984,1.7023,1.7042,1.687,1.6873,1.6875,1.6988,0,1.7119,1.7149,1.7089,1.7133,1.7139,1.7058,1.7076,1.705,1.7016,1.7016,1.6978,1.6979,1.6917,1.6909,1.6929,1.689,1.6945,1.6881,1.6886,1.6887,1.6897,1.706,1.71,1.7209,1.7001,1.7003,1.7005,0,1.7251,1.7235,1.7281,1.7233,1.7233,1.725,1.7232,1.7233,1.7203,1.7176,1.7164,1.711,1.7128,1.7061,1.7087,1.7045,1.7044,1.7025,1.7028,1.7026,1.6953,1.7064,1.7241,1.7258,1.7026,1.7024,1.7023,0,1.7388,1.7378,1.7404,1.7393,1.7337,1.7351,1.7329,1.7295,1.7291,1.7276,1.7273,1.7261,1.7255,1.7247,1.7192,1.7148,1.7225,1.7153,1.7205,1.7207,1.7225,1.7224,1.7406,1.7223,1.7223,1.7223,1.7223,0,1.7517,1.7548,1.7465,1.7481,1.7515,1.7446,1.7482,1.7451,1.7423,1.7433,1.7363,1.7374,1.73,1.7304,1.7262,1.729,1.7288,1.7268,1.7256,1.7274,1.7277,1.7273,1.7264,1.7227,1.7226,1.7225,1.7225,0,1.7675,1.762,1.7644,1.7589,1.7577,1.7604,1.7558,1.7572,1.7533,1.7547,1.7547,1.7487,1.7488,1.7432,1.7422,1.7394,1.7442,1.7416,1.7452,1.7444,1.7499,1.7495,1.7684,1.7706,1.751,1.7512,1.7513,0,1.7762,1.7784,1.7732,1.7734,1.7715,1.7718,1.7713,1.7648,1.7646,1.7615,1.7633,1.7629,1.7621,1.7628,1.7584,1.7577,1.7551,1.7618,1.7549,1.7568,1.7553,1.7553,1.7556,1.7633,1.7635,1.7637,1.7639,0,1.7922,1.7894,1.7889,1.7876,1.7872,1.7859,1.7841,1.7847,1.7775,1.7777,1.7778,1.7772,1.7763,1.776,1.7744,1.7723,1.767,1.7661,1.7672,1.7691,1.7712,1.7703,1.7492,1.7657,1.7655,1.7653,1.7652,1.7652,1.8047,1.8063,1.803,1.8028,1.8008,1.7994,1.8004,1.7968,1.7966,1.7953,1.7915,1.7922,1.7894,1.7868,1.7851,1.7857,1.7824,1.784,1.7845,1.785,1.7861,1.7711,1.7854,1.7853,1.7853,1.7852,1.7852,0,1.8204,1.8179,1.8178,1.8155,1.8155,1.8104,1.8083,1.8086,1.8092,1.807,1.8065,1.8066,1.8064,1.8021,1.8013,1.8026,1.8002,1.8027,1.8025,1.8022,1.7891,1.7882,1.8047,1.8046,1.8046,1.8046,1.8046,1.8046,1.8286,1.8312,1.8281,1.8297,1.8272,1.8278,1.8271,1.8258,1.8239,1.8244,1.8241,1.8213,1.8183,1.8173,1.8169,1.8157,1.8158,1.8191,1.8171,1.8049,1.8031,1.8013,1.8004,1.8192,1.8192,1.8301,1.8302,1.8303]},{"header":{"parameterUnit":"m.s-1","parameterCategory":1,"la1":30.2991,"la2":30.254,"lo1":-89.0895,"lo2":-89.0444,"dx":0.0017,"dy":0.0017,"nx":28,"ny":28,"refTime":"2022-11-15T09:00:00:Z","depth":0,"parameterNumber":3,"parameterNumberName":"V-component_of_WINDS"},"data":[0,0,0,0,0,0,0,0,0,0,0,0,0,0,0,0,0,0,0,0,0,0,0,0,0,0,0,0,0,0,0,0,0,0,0,0,0,0,0,0,0,0,0,0,0,0,0,0,0,0,0,0,0,0,0,0,0,0,-0.0349,-0.0345,0,0.0076,0.0081,0.0085,0.0151,0.0147,0.0144,0.014,0.0588,0.0603,0.0619,0,0,0,0,0,0,0,0,0,0,0,0,0,-0.1091,-0.1078,-0.035,-0.0344,-0.0339,0.0075,0.0081,0.0087,0.0152,0.0147,0.0143,0.0138,0.0583,0.0602,0.062,0,0,0,0,0,0,0,0,0,0,0,0,0,-0.0728,-0.1074,-0.035,-0.0257,-0.0244,0.0074,0.0081,0.0088,0.0153,0.0147,0.0141,0.0136,0.0577,0.06,0.0623,0.0881,0,0,0.0694,0.0704,0,0,0,0,0,0,0,0,-0.0748,-0.07,-0.0276,-0.0263,-0.0248,0.0054,-0.0016,0.0355,0.0154,0.0003,0.014,0.0133,0.0416,0.0452,0.0545,0.0902,0.0921,0.0696,0.071,0.072,0.0727,0,0,0,0,0,0,0,-0.0774,-0.0718,-0.0181,-0.027,-0.0253,-0.0232,-0.0186,0.0054,0.0237,0.0015,0.0021,0.007,0.0423,0.0522,0.0556,0.0928,0.0695,0.0716,0.073,0.0739,0.1522,0.1529,0,0,0,0,0,0,-0.0818,-0.074,-0.0194,-0.0168,-0.0518,-0.0214,-0.0163,-0.0037,0.0234,0.027,0.0074,0.0071,0.0486,0.0529,0.0572,0.0896,0.072,0.0742,0.0755,0.1516,0.1524,0.1531,0,0,0,0,0,0,-0.0834,-0.077,-0.0211,-0.0452,-0.038,-0.0195,-0.0053,-0.0025,0.0074,0.0278,0.0313,0.0142,0.0483,0.0539,0.0804,0.0912,0.0752,0.0773,0.1507,0.1518,0.1528,0.1542,0,0,0,0,0,0,-0.0855,-0.0776,-0.0679,-0.0451,-0.0367,0.0009,-0.0047,-0.0013,0.0113,0.0113,0.0351,0.0385,0.0483,0.0769,0.0827,0.0941,0.0791,0.1499,0.1512,0.1524,0.1533,0.1551,0.1567,0,0,0,0,0,-0.0882,-0.069,-0.0675,-0.0609,-0.0243,0.0015,0.0063,0.0168,0.0121,0.0223,0.0354,0.0378,0.0889,0.0795,0.0861,0.0984,0.1493,0.1508,0.1523,0.1525,0.1548,0.1567,0,0,0,0,0,0,-0.0905,-0.0658,-0.0638,-0.0367,-0.0198,0.0025,0.0157,0.0188,0.0378,0.0371,0.0496,0.0549,0.0808,0.0922,0.0813,0.125,0.1188,0.1217,0.1166,0.119,0.1207,0.1176,0.0811,0,0,0,0,0,-0.088,-0.0696,-0.0488,-0.0268,-0.0185,-0.0029,0.0087,0.0152,0.0335,0.0408,0.0559,0.0738,0.094,0.1071,0.1267,0.1548,0.1604,0.1666,0.1683,0.1696,0.1722,0.1883,0.1914,0.1582,0.1582,0.1581,0,0,-0.0823,-0.0666,-0.0556,-0.0269,-0.013,0.0063,0.0031,0.0236,0.0382,0.0441,0.0699,0.0816,0.1025,0.1299,0.1428,0.1403,0.1825,0.1716,0.1725,0.1744,0.1902,0.1933,0.1961,0.1592,0.159,0.1589,0,0,-0.0621,-0.0486,-0.0287,-0.0148,0.0061,0.0164,0.0211,0.0431,0.0509,0.0769,0.0818,0.0995,0.1339,0.1487,0.1607,0.1864,0.1895,0.1925,0.2018,0.2173,0.2199,0.2223,0.232,0.2352,0.1949,0.1949,0.1949,0,-0.0576,-0.0288,-0.0187,0.0016,0.0143,0.02,0.0406,0.0537,0.0801,0.089,0.0856,0.1289,0.1434,0.1745,0.1808,0.1902,0.1964,0.1901,0.2186,0.2212,0.2236,0.2329,0.2364,0.1952,0.1951,0.1951,0.1951,0,-0.024,-0.0041,0.0095,0.0345,0.0487,0.069,0.0826,0.0959,0.1011,0.1118,0.1385,0.156,0.1794,0.1872,0.1927,0.2193,0.2171,0.216,0.2101,0.2268,0.2358,0.2394,0.1955,0.1954,0.1954,0.1953,0,0,-0.0038,0.0263,0.0312,0.0427,0.0662,0.0821,0.1028,0.1253,0.1366,0.1546,0.1727,0.2015,0.2007,0.2143,0.2215,0.2351,0.2549,0.2325,0.2332,0.2364,0.2858,0.2867,0.2906,0.2568,0.2575,0.2581,0.2841,0,0.0195,0.0562,0.0659,0.0974,0.1162,0.1218,0.14,0.1566,0.1671,0.185,0.1968,0.2172,0.2143,0.2226,0.2362,0.2495,0.265,0.2477,0.2743,0.2752,0.2693,0.2953,0.2964,0.3201,0.2877,0.2883,0.2887,0,0.0516,0.0699,0.1031,0.1243,0.1325,0.1486,0.1702,0.1869,0.206,0.2128,0.2279,0.2338,0.2561,0.2486,0.2798,0.2678,0.2793,0.2874,0.2886,0.2919,0.2832,0.2997,0.3279,0.3316,0.2943,0.2938,0.2934,0,0.0636,0.0965,0.1207,0.1303,0.1555,0.1668,0.1779,0.1963,0.2093,0.2282,0.2368,0.2582,0.27,0.2866,0.2984,0.2917,0.3288,0.3221,0.3355,0.3352,0.3434,0.3428,0.3743,0.35,0.3499,0.3498,0.3498,0,0.0889,0.1091,0.1264,0.1414,0.1643,0.1754,0.1979,0.2093,0.2256,0.2432,0.2494,0.2659,0.2801,0.2987,0.308,0.3327,0.3379,0.3443,0.3467,0.3441,0.3433,0.3521,0.3509,0.3508,0.3506,0.3504,0.3502,0,0.1063,0.1186,0.1455,0.167,0.1729,0.1889,0.2075,0.2225,0.2331,0.2553,0.2612,0.278,0.3002,0.3133,0.3414,0.3477,0.3751,0.3765,0.3686,0.3697,0.3825,0.3813,0.4211,0.4271,0.3982,0.3985,0.3987,0,0.1218,0.1374,0.1605,0.1725,0.1837,0.203,0.2161,0.2277,0.2413,0.2642,0.2765,0.2988,0.3174,0.3526,0.3677,0.3892,0.3915,0.404,0.3949,0.3918,0.3923,0.3914,0.3932,0.4057,0.4059,0.4061,0.4063,0,0.1482,0.1535,0.172,0.1928,0.2083,0.2253,0.2422,0.2518,0.2663,0.2813,0.3038,0.3181,0.3466,0.369,0.3918,0.4037,0.4078,0.4089,0.4133,0.411,0.4059,0.4093,0.3733,0.4081,0.4079,0.4078,0.4077,0.4076,0.1656,0.1798,0.1983,0.2188,0.2327,0.2484,0.2635,0.2759,0.2947,0.3185,0.3243,0.348,0.367,0.3979,0.4104,0.4294,0.4275,0.4336,0.4353,0.4367,0.4373,0.4024,0.4336,0.4335,0.4335,0.4335,0.4335,0,0.1927,0.2047,0.2235,0.2468,0.2631,0.2647,0.2836,0.2973,0.3179,0.335,0.353,0.379,0.4007,0.4173,0.4397,0.4518,0.4542,0.4573,0.4568,0.4596,0.4375,0.4318,0.455,0.455,0.455,0.455,0.455,0.455,0.2087,0.233,0.2405,0.2719,0.2841,0.307,0.3177,0.3324,0.3461,0.3747,0.3926,0.4031,0.4203,0.4439,0.464,0.4684,0.4766,0.4795,0.4842,0.4634,0.4611,0.4589,0.4536,0.481,0.4811,0.5048,0.505,0.5052]}]]